Edna St. Vincent Millay

(22 February 1892 – 19 October 1950 / Rockland / Maine / United States)

Stats

» Click to list general statistics » OR, select a date :

General Statistics

Visitors of the poet

Number of visitors of the poet’s mainpage in PoemHunter.Com

Attention : Numbers in this table does not indicate the total hits of poems of the poet, but indicates the hits of the poet’s main page.

Date Hits
02/11/2016 Thursday 848
70%
02/10/2016 Wednesday 1123
92%
02/09/2016 Tuesday 1113
91%
02/08/2016 Monday 984
81%
02/07/2016 Sunday 770
63%
02/06/2016 Saturday 1049
86%
02/05/2016 Friday 817
67%
02/04/2016 Thursday 821
67%
02/03/2016 Wednesday 909
75%
02/02/2016 Tuesday 1136
93%
02/01/2016 Monday 925
76%
01/31/2016 Sunday 1211
100%
01/30/2016 Saturday 904
74%
01/29/2016 Friday 835
68%
01/28/2016 Thursday 1111
91%
01/27/2016 Wednesday 905
74%
01/26/2016 Tuesday 929
76%
01/25/2016 Monday 894
73%
01/24/2016 Sunday 873
72%
01/23/2016 Saturday 699
57%

Reader rating & num.of MyPoemList’s

Click the captions of columns to change the order.

# Poem Title Submit Date Reader Rating Num.of MyPoemList’s
Rating Num.R.
1 [four Sonnets (1922)] 01/01/2004 5.3 107 30
2 A Visit To The Asylum 01/13/2003 6.1 100 59
3 Afternoon On A Hill 01/04/2003 6.6 119 78
4 Alms 01/13/2003 5.7 93 27
5 An Ancient Gesture 01/13/2003 6.0 108 49
6 And Do You Think That Love Itself 01/13/2003 6.1 115 63
7 And You As Well Must Die, Belovèd Dust 01/01/2004 6.1 78 53
8 Apostrophe To Man 01/13/2003 5.9 119 32
9 Ashes Of Life 01/13/2003 6.0 88 67
10 Assault 01/13/2003 5.7 125 20
11 Autumn Daybreak 01/13/2003 5.7 131 44
12 Being Young And Green 01/13/2003 5.6 86 33
13 Blight 01/13/2003 5.9 96 22
14 Bluebeard 01/01/2004 5.5 80 43
15 Burial 01/13/2003 5.3 89 30
16 Childhood Is The Kingdom Where Nobody Dies 11/28/2014 -- 0 0
17 Chorus 01/13/2003 5.8 82 23
18 City Trees 01/13/2003 5.8 134 59
19 Conscientious Objector 01/13/2003 5.5 180 73
20 Counting-Out Rhyme 01/01/2004 6.1 99 23
21 Daphne 01/13/2003 5.7 93 33
22 Departure 01/13/2003 5.5 88 41
23 Dirge 01/13/2003 5.6 68 11
24 Dirge Without Music 01/13/2003 6.5 101 68
25 Doubt No More That Oberon 01/13/2003 5.6 66 13
26 Ebb 01/13/2003 5.5 81 25
27 Eel-Grass 01/13/2003 6.0 33 11
28 Elegy 01/13/2003 5.3 42 8
29 Elegy Before Death 01/13/2003 6.1 31 14
30 Epitaph 01/13/2003 6.1 38 17
31 Euclid Alone 01/01/2004 5.7 46 16
32 Exiled 01/13/2003 6.5 44 22
33 Feast 01/13/2003 6.0 50 14
34 First Fig 01/13/2003 7.5 74 93
35 Fontaine, Je Ne Boirai Pas De Ton Eau! 01/13/2003 5.5 31 8
36 God's World 01/04/2003 6.1 70 38
37 Grown-Up 01/01/2004 6.2 25 31
38 Here Is A Wound That Never Will Heal, I Know 01/13/2003 6.0 56 58
39 Humoresque 01/01/2004 5.6 30 16
40 I Do But Ask That You Be Always Fair 01/01/2004 5.5 42 29
41 I Dreamed I Moved Among The Elysian Fields 01/13/2003 5.9 68 25
42 I Know 100 Ways To Die 07/07/2003 7.8 4 28
43 I Know I Am But Summer To Your Heart 01/13/2003 6.5 40 48
44 I Know The Face Of Falsehood And Her Tongue 01/13/2003 5.6 44 8
45 I Shall Go Back 01/01/2004 5.5 39 26
46 I will put Chaos into fourteen lines 10/24/2015 -- 0 0
47 I, Being Born A Woman And Distressed 01/01/2004 6.7 33 54
48 If I Should Learn, In Some Quite Casual Way 01/01/2004 6.4 40 36
49 If Still Your Orchards Bear 01/13/2003 5.8 32 7
50 Indifference 01/13/2003 5.8 33 11
51 Inland 01/13/2003 5.5 36 8
52 Intention To Escape From Him 01/13/2003 6.3 35 21
53 Interim 01/13/2003 6.1 36 14
54 Invocation To The Muses 01/13/2003 5.8 37 4
55 Journey 01/13/2003 6.2 26 17
56 Justice Denied In Massachusetts 01/13/2003 5.9 34 8
57 Kin To Sorrow 01/13/2003 5.5 34 21
58 Lament 01/13/2003 6.4 39 26
59 Lines For A Grave-Stone 01/01/2004 6.1 37 8
60 Lines Written In Recapitulation 01/13/2003 6.2 49 4
61 Love Is Not All 01/13/2003 7.5 81 176
62 Low-Tide 01/13/2003 4.8 45 14
63 Make Bright The Arrows 01/13/2003 5.7 38 4
64 Mariposa 01/13/2003 6.6 50 13
65 Memorial To D.C. 01/13/2003 5.8 31 2
66 Menses 01/13/2003 5.6 33 6
67 Midnight Oil 01/13/2003 5.9 36 12
68 Mist In The Valley 01/13/2003 5.4 33 15
69 Modern Declaration 01/13/2003 5.6 34 9
70 My Most Distinguished Guest And Learned Friend 01/13/2003 5.4 35 9
71 Night Is My Sister, And How Deep In Love 01/13/2003 5.7 35 27
72 No Rose That In A Garden Ever Grew 01/01/2004 5.5 36 12
73 Not Even My Pride Shall Suffer Much 01/13/2003 5.7 37 9
74 Not In A Silver Casket Cool With Pearls 01/13/2003 5.9 38 20
75 Ode To Silence 01/13/2003 5.9 33 15
76 Oh, My Belovèd, Have You Thought Of This 01/01/2004 6.0 36 13
77 Oh, Oh, You Will Be Sorry 01/13/2003 6.4 38 34
78 Only Until This Cigarette Is Ended 01/01/2004 5.5 36 45
79 Passer Mortuus Est 01/13/2003 5.8 46 10
80 Pastoral 01/13/2003 5.1 35 5
81 Pity Me Not Because The Light Of Day 01/13/2003 6.3 38 32
82 Portrait By A Neighbour 01/13/2003 5.9 35 9
83 Prayer To Persephone 01/13/2003 5.5 33 18
84 Recuerdo 01/01/2004 6.5 44 20
85 Renascence 01/04/2003 7.0 31 61
86 Rosemary 01/13/2003 5.6 45 6
87 Scrub 01/13/2003 5.7 42 5
88 Second Fig 01/13/2003 6.0 47 27
89 She Is Overheard Singing 06/18/2015 -- 0 1
90 Song Of A Second April 01/13/2003 5.9 46 9
91 Sonnet (Women Have Loved Before As I Love Now) 01/13/2003 5.9 44 18
92 Sonnet 01: Thou Art Not Lovelier Than Lilacs,&Mdash;No 01/13/2003 5.7 44 15
93 Sonnet 02: Time Does Not Bring Relief; You All Have Lied 01/13/2003 6.5 66 67
94 Sonnet 03: Mindful Of You The Sodden Earth In Spring 01/13/2003 5.4 42 5
95 Sonnet 04: Not In This Chamber Only At My Birth 01/13/2003 5.5 43 4
96 Sonnet 05: If I Should Learn, In Some Quite Casual Way 01/13/2003 5.9 48 18
97 Sonnet 06: Bluebeard 01/13/2003 6.1 49 9
98 Sonnet I: Thou Art Not Lovelier Than Lilacs 01/01/2004 5.6 43 11
99 Sonnet Ii: Time Does Not Bring Relief 01/01/2004 6.0 47 25
100 Sonnet Iii: Mindful Of You The Sodden Earth 01/01/2004 5.6 42 5
101 Sonnet Iv: Not In This Chamber 01/01/2004 5.5 42 4
102 Sonnet V: If I Should Learn 01/01/2004 5.3 48 4
103 Sonnet Vi: This Door You Might Not Open 01/01/2004 5.9 49 12
104 Sonnets (1923) 01/01/2004 5.3 49 6
105 Sonnets 01: We Talk Of Taxes, And I Call You Friend 01/13/2003 5.4 48 9
106 Sonnets 02: Into The Golden Vessel Of Great Song 01/13/2003 5.3 55 3
107 Sonnets 03: Not With Libations, But With Shouts And Laughter 01/13/2003 5.8 56 6
108 Sonnets 04: Only Until This Cigarette Is Ended 01/13/2003 5.9 35 12
109 Sonnets 05: Once More Into My Arid Days Like Dew 01/13/2003 5.7 32 8
110 Sonnets 06: No Rose That In A Garden Ever Grew 01/13/2003 5.6 42 7
111 Sonnets 07: When I Too Long Have Looked Upon Your Face 01/13/2003 5.9 44 24
112 Sonnets 08: And You As Well Must Die, Beloved Dust 01/13/2003 5.5 50 7
113 Sonnets 09: Let You Not Say Of Me When I Am Old 01/13/2003 5.6 51 9
114 Sonnets 10: Oh, My Beloved, Have You Thought Of This 01/13/2003 5.8 45 6
115 Sonnets 11: As To Some Lovely Temple, Tenantless 01/13/2003 5.7 44 3
116 Sonnets 12: Cherish You Then The Hope I Shall Forget 01/13/2003 5.5 61 3
117 Sonnets From An Ungrafted Tree 01/13/2003 5.7 46 4
118 Sorrow 01/13/2003 5.7 53 26
119 Souvenir 01/13/2003 5.6 46 11
120 Spring 01/13/2003 6.1 45 21
121 Sweet Love, Sweet Thorn, When Lightly To My Heart 01/13/2003 5.6 46 18
122 Tavern 01/13/2003 5.6 48 8
123 The Ballad Of The Harp-Weaver 01/13/2003 5.9 61 29
124 The Bean-Stalk 01/13/2003 5.6 58 5
125 The Betrothal 01/01/2004 5.6 37 14
126 The Blue Flag In The Bog 01/01/2004 5.9 34 4
127 The Blue-Flag In The Bog 01/13/2003 5.3 62 2
128 The Concert 01/13/2003 5.5 71 7
129 The Courage That My Mother Had 01/03/2015 -- 0 1
130 The Curse 01/13/2003 5.9 68 13
131 The Death Of Autumn 01/13/2003 5.9 59 10
132 The Dream 01/13/2003 5.8 62 27
133 The Fawn 01/13/2003 5.8 66 5
134 The Fledgling 01/13/2003 5.4 49 2
135 The Goose-Girl 01/13/2003 5.8 69 9
136 The Leaf And The Tree 01/13/2003 5.9 60 17
137 The Little Ghost 01/13/2003 6.1 38 16
138 The Little Hill 01/13/2003 5.8 54 7
139 The Penitent 01/13/2003 5.6 30 11
140 The Philosopher 01/13/2003 5.6 44 23
141 The Plaid Dress 01/13/2003 5.8 46 10
142 The Poet And His Book 01/13/2003 6.2 40 11
143 The Prisoner 07/30/2015 -- 0 0
144 The Return From Town 01/13/2003 5.5 47 6
145 The Shroud 01/13/2003 5.5 57 5
146 The Singing-Woman From The Wood's Edge 01/13/2003 5.9 45 8
147 The Snow Storm 01/13/2003 5.8 75 7
148 The Spring And The Fall 01/13/2003 8.0 111 68
149 The Suicide 01/13/2003 5.5 58 19
150 The True Encounter 01/13/2003 5.9 54 6
151 The Unexplorer 01/13/2003 6.0 49 8
152 The Wood Road 01/13/2003 5.8 44 6
153 Think Not, Not For A Moment Let Your Mind 01/13/2003 5.7 54 14
154 Three Songs Of Shattering 01/13/2003 5.9 38 9
155 Thursday 01/01/2004 5.3 76 11
156 To A Poet That Died Young 01/13/2003 5.8 43 7
157 To A Young Poet 01/01/2004 5.9 61 9
158 To Kathleen 01/01/2004 5.5 57 4
159 To The Not Impossible Him 01/13/2003 5.3 52 14
160 To Those Without Pity 01/13/2003 5.1 39 10
161 Travel 01/13/2003 6.0 41 17
162 Two Sonnets In Memory 01/13/2003 5.9 31 6
163 Underground System 01/13/2003 5.8 34 3
164 We Talk Of Taxes... 01/01/2004 6.2 28 4
165 Weeds 01/13/2003 8.0 1 8
166 What Lips My Lips Have Kissed, And Where, And Why (Sonnet Xliii) 01/13/2003 7.9 126 380
167 When I Too Long Have Looked Upon Your Face 01/01/2004 6.2 37 31
168 When The Year Grows Old 01/04/2003 5.7 38 17
169 When We Are Old And These Rejoicing Veins 01/13/2003 5.7 35 14
170 Whereas At Morning In A Jeweled Crown 01/13/2003 5.4 42 7
171 Wild Swans 01/13/2003 6.0 33 14
172 Witch-Wife 01/13/2003 5.4 39 24
173 Wraith 01/13/2003 5.7 30 12
[Hata Bildir]